Weather in Shudayag

Russia / Komi Republic     63°31′42″N   53°36′15″E
temp.,
°C
wind,
m/s
gust,
m/s
humid.,
%
clouds,
%
prec.,
mm/h
press.,
hPa
HPBL,
m
7 august, sun
sun700:00+18sw26695 0.0 1019113
03:00+17wsw26731 0.0 1019103
06:00+21sw35620 0.0 1019218
09:00+27sw45430 0.0 10181483
12:00+29sw47330 0.0 10172379
15:00+30sw58314 0.0 10152847
18:00+27sw37415 0.0 1015336
21:00+21ssw37590 0.0 1015131
8 august, mon
mon800:00+19s3106431 0.0 1015184
03:00+20sw3116378 0.0 1015356
06:00+21wsw48685 0.0 1015450
09:00+23w465922 0.0 10161089
12:00+25w464571 0.0 10171835
15:00+22nw454884 0.0 1018933
18:00+22w254544 0.0 1018341
21:00+15nw23627 0.0 102048
9 august, tue
tue900:00+13wnw226610 0.0 102136
03:00+11nw2476100 0.0 102289
06:00+15nnw3658100 0.0 1023287
09:00+19nnw344076 0.0 10231313
12:00+21nnw233117 0.0 10232093
15:00+22nnw233082 0.0 10232395
18:00+19ne1147100 0.0 102313
21:00+13nne2461100 0.0 102491
10 august, wed
wed1000:00+12ne2266100 0.0 102432
03:00+11nne227194 0.0 102432
06:00+13ene2465100 0.0 1024152
09:00+17ene3448100 0.0 1023482
12:00+19e3339100 0.0 10221250
15:00+18e2341100 0.0 10211139
18:00+16sse126199 0.0 102082
21:00+10ssw118884 0.0 102010
11 august, thu
thu1100:00+9nw22884 0.0 101922
03:00+8n22750 0.0 101843
06:00+13nne13550 0.0 1018178
09:00+19nne24382 0.0 10171241
12:00+21ne23314 0.0 10152077
15:00+22ene223020 0.0 10142398
18:00+19ese224640 0.0 101339
21:00+15s246298 0.0 101288